Satellite: NOAA-11 Catalog number: 19531 Epoch time: 11285.87007125 Element set: 0664 Inclination: 098.7484 deg RA of node: 011.0826 deg Eccentricity: 0.0010689 Arg of perigee: 209.1108 deg Mean anomaly: 150.9467 deg Mean motion: 14.14928146 rev/day Decay rate: 1.88e-06 rev/day^2 Epoch rev: 18939 Checksum: 316
Satellite: NOAA-12 Catalog number: 21263 Epoch time: 11285.98974986 Element set: 0178 Inclination: 098.7478 deg RA of node: 303.6065 deg Eccentricity: 0.0013275 Arg of perigee: 198.9358 deg Mean anomaly: 161.1330 deg Mean motion: 14.25443941 rev/day Decay rate: 7.0e-07 rev/day^2 Epoch rev: 06119 Checksum: 324
Satellite: MET-3/5 Catalog number: 21655 Epoch time: 11286.94858085 Element set: 232 Inclination: 082.5586 deg RA of node: 326.8703 deg Eccentricity: 0.0012728 Arg of perigee: 215.4445 deg Mean anomaly: 144.5842 deg Mean motion: 13.17029109 rev/day Decay rate: 5.1e-07 rev/day^2 Epoch rev: 96935 Checksum: 317
Satellite: MET-2/21 Catalog number: 22782 Epoch time: 11286.84938202 Element set: 228 Inclination: 082.5475 deg RA of node: 228.7241 deg Eccentricity: 0.0023830 Arg of perigee: 123.7040 deg Mean anomaly: 236.6395 deg Mean motion: 13.83664098 rev/day Decay rate: 7.0e-07 rev/day^2 Epoch rev: 91496 Checksum: 311
Satellite: OKEAN-4 Catalog number: 23317 Epoch time: 11286.90561788 Element set: 692 Inclination: 082.5373 deg RA of node: 262.2671 deg Eccentricity: 0.0023825 Arg of perigee: 087.1508 deg Mean anomaly: 273.2437 deg Mean motion: 14.83207126 rev/day Decay rate: 1.322e-05 rev/day^2 Epoch rev: 91814 Checksum: 304
Satellite: NOAA-14 Catalog number: 23455 Epoch time: 11285.93750619 Element set: 0660 Inclination: 098.8461 deg RA of node: 007.3644 deg Eccentricity: 0.0008881 Arg of perigee: 309.8560 deg Mean anomaly: 050.1828 deg Mean motion: 14.13837370 rev/day Decay rate: 1.8e-07 rev/day^2 Epoch rev: 86571 Checksum: 317
Satellite: NOAA-15 Catalog number: 25338 Epoch time: 11285.92096111 Element set: 0982 Inclination: 098.6671 deg RA of node: 270.5234 deg Eccentricity: 0.0011578 Arg of perigee: 108.7786 deg Mean anomaly: 251.4652 deg Mean motion: 14.24961826 rev/day Decay rate: 2.94e-06 rev/day^2 Epoch rev: 69749 Checksum: 339
Satellite: RESURS Catalog number: 25394 Epoch time: 11285.99227656 Element set: 0930 Inclination: 098.3058 deg RA of node: 282.5611 deg Eccentricity: 0.0000415 Arg of perigee: 245.6234 deg Mean anomaly: 114.4900 deg Mean motion: 14.24244365 rev/day Decay rate: 6.2e-07 rev/day^2 Epoch rev: 68907 Checksum: 294
Satellite: FENGYUN1 Catalog number: 25730 Epoch time: 11286.92485096 Element set: 445 Inclination: 098.8260 deg RA of node: 245.5736 deg Eccentricity: 0.0024794 Arg of perigee: 346.2513 deg Mean anomaly: 013.7974 deg Mean motion: 14.08896492 rev/day Decay rate: 2.125e-05 rev/day^2 Epoch rev: 63978 Checksum: 340
Satellite: OKEAN-0 Catalog number: 25860 Epoch time: 11286.90483634 Element set: 437 Inclination: 097.8999 deg RA of node: 250.1866 deg Eccentricity: 0.0001232 Arg of perigee: 039.2845 deg Mean anomaly: 320.8452 deg Mean motion: 14.73871857 rev/day Decay rate: 7.00e-06 rev/day^2 Epoch rev: 65814 Checksum: 324
Satellite: NOAA-16 Catalog number: 26536 Epoch time: 11285.93590397 Element set: 0464 Inclination: 099.1302 deg RA of node: 318.8137 deg Eccentricity: 0.0011214 Arg of perigee: 064.0732 deg Mean anomaly: 296.1575 deg Mean motion: 14.12653232 rev/day Decay rate: 3.41e-06 rev/day^2 Epoch rev: 56998 Checksum: 310
Satellite: NOAA-17 Catalog number: 27453 Epoch time: 11285.91516855 Element set: 0449 Inclination: 098.3679 deg RA of node: 320.1525 deg Eccentricity: 0.0012050 Arg of perigee: 160.2316 deg Mean anomaly: 199.9325 deg Mean motion: 14.24325116 rev/day Decay rate: 2.81e-06 rev/day^2 Epoch rev: 48341 Checksum: 298
Satellite: NOAA-18 Catalog number: 28654 Epoch time: 11285.69951920 Element set: 0926 Inclination: 099.0101 deg RA of node: 237.2107 deg Eccentricity: 0.0014954 Arg of perigee: 131.8880 deg Mean anomaly: 228.3541 deg Mean motion: 14.11527829 rev/day Decay rate: 4.37e-06 rev/day^2 Epoch rev: 32950 Checksum: 311
Satellite: NOAA-19 Catalog number: 33591 Epoch time: 11285.72277793 Element set: 0117 Inclination: 098.8363 deg RA of node: 223.9473 deg Eccentricity: 0.0014349 Arg of perigee: 007.5992 deg Mean anomaly: 352.5382 deg Mean motion: 14.11217343 rev/day Decay rate: 1.83e-06 rev/day^2 Epoch rev: 13796 Checksum: 324
/EX SB KEPS @ AMSAT $ORB11287.M Orbital Elements 11287.MISC
HR AMSAT ORBITAL ELEMENTS FOR MANNED AND MISCELLANEOUS SATELLITES FROM WA5QGD FORT WORTH,TX October 14, 2011 Send Subscribe/unsubscribe to KEPS at http://www.amsat.org/mailman/listinfo/keps BID: ORB11287.M TO ALL RADIO AMATEURS BT
Satellite: HUBBLE Catalog number: 20580 Epoch time: 11285.23952254 Element set: 0850 Inclination: 028.4712 deg RA of node: 331.7207 deg Eccentricity: 0.0003108 Arg of perigee: 280.8947 deg Mean anomaly: 079.1276 deg Mean motion: 15.01609498 rev/day Decay rate: 2.360e-05 rev/day^2 Epoch rev: 97726 Checksum: 299
Satellite: ISS Catalog number: 25544 Epoch time: 11285.91900602 Element set: 0234 Inclination: 051.6409 deg RA of node: 288.0749 deg Eccentricity: 0.0016408 Arg of perigee: 320.9217 deg Mean anomaly: 117.1587 deg Mean motion: 15.60589610 rev/day Decay rate: 7.956e-05 rev/day^2 Epoch rev: 73929 Checksum: 315
Satellite: CO-58 Catalog number: 28895 Epoch time: 11285.65747249 Element set: 0998 Inclination: 097.9471 deg RA of node: 157.3927 deg Eccentricity: 0.0017083 Arg of perigee: 208.9117 deg Mean anomaly: 151.1152 deg Mean motion: 14.60213713 rev/day Decay rate: 8.01e-06 rev/day^2 Epoch rev: 31738 Checksum: 335
Satellite: FALCON Catalog number: 30776 Epoch time: 11286.60266033 Element set: 192 Inclination: 035.4344 deg RA of node: 346.7299 deg Eccentricity: 0.0001636 Arg of perigee: 018.0682 deg Mean anomaly: 342.0092 deg Mean motion: 15.05211842 rev/day Decay rate: 4.914e-05 rev/day^2 Epoch rev: 25289 Checksum: 284
Satellite: MAST Catalog number: 31126 Epoch time: 11285.93601965 Element set: 0293 Inclination: 097.8884 deg RA of node: 306.4734 deg Eccentricity: 0.0094717 Arg of perigee: 163.5469 deg Mean anomaly: 196.8840 deg Mean motion: 14.53830850 rev/day Decay rate: 5.45e-06 rev/day^2 Epoch rev: 23819 Checksum: 335
Satellite: CAPE1 Catalog number: 31130 Epoch time: 11286.85778306 Element set: 294 Inclination: 097.8931 deg RA of node: 303.9448 deg Eccentricity: 0.0102210 Arg of perigee: 172.1491 deg Mean anomaly: 188.1338 deg Mean motion: 14.52501955 rev/day Decay rate: 6.62e-06 rev/day^2 Epoch rev: 23786 Checksum: 303
Satellite: COMPASS Catalog number: 32787 Epoch time: 11286.72745723 Element set: 116 Inclination: 097.8373 deg RA of node: 348.2706 deg Eccentricity: 0.0016140 Arg of perigee: 145.5899 deg Mean anomaly: 214.6350 deg Mean motion: 14.82739175 rev/day Decay rate: 2.114e-05 rev/day^2 Epoch rev: 18712 Checksum: 313
Satellite: AAUSAT2 Catalog number: 32788 Epoch time: 11287.14790254 Element set: 107 Inclination: 097.8373 deg RA of node: 348.9481 deg Eccentricity: 0.0015571 Arg of perigee: 145.0150 deg Mean anomaly: 215.2144 deg Mean motion: 14.82955487 rev/day Decay rate: 2.987e-05 rev/day^2 Epoch rev: 18720 Checksum: 322
Satellite: DO-64 Catalog number: 32789 Epoch time: 11286.70924764 Element set: 122 Inclination: 097.8461 deg RA of node: 349.7642 deg Eccentricity: 0.0015725 Arg of perigee: 144.9917 deg Mean anomaly: 215.2319 deg Mean motion: 14.83610976 rev/day Decay rate: 3.999e-05 rev/day^2 Epoch rev: 18715 Checksum: 355
Satellite: CO-66 Catalog number: 32791 Epoch time: 11286.70295023 Element set: 110 Inclination: 097.8384 deg RA of node: 348.1464 deg Eccentricity: 0.0016346 Arg of perigee: 145.0110 deg Mean anomaly: 215.2157 deg Mean motion: 14.82379584 rev/day Decay rate: 1.982e-05 rev/day^2 Epoch rev: 18706 Checksum: 308
Satellite: RS-30 Catalog number: 32953 Epoch time: 11286.94901453 Element set: 166 Inclination: 082.4966 deg RA of node: 088.8833 deg Eccentricity: 0.0019410 Arg of perigee: 126.0577 deg Mean anomaly: 234.2312 deg Mean motion: 12.43015811 rev/day Decay rate: 1.0e-07 rev/day^2 Epoch rev: 15384 Checksum: 283
Satellite: TACSAT-3 Catalog number: 35001 Epoch time: 11286.85270727 Element set: 722 Inclination: 040.4522 deg RA of node: 169.9558 deg Eccentricity: 0.0017250 Arg of perigee: 005.7319 deg Mean anomaly: 354.3705 deg Mean motion: 15.54413951 rev/day Decay rate: 4.6953e-04 rev/day^2 Epoch rev: 13551 Checksum: 294
Satellite: PHARMSAT Catalog number: 35002 Epoch time: 11285.85195372 Element set: 0678 Inclination: 040.4686 deg RA of node: 174.8638 deg Eccentricity: 0.0019616 Arg of perigee: 011.6946 deg Mean anomaly: 348.4314 deg Mean motion: 15.52775129 rev/day Decay rate: 3.5948e-04 rev/day^2 Epoch rev: 13537 Checksum: 329
Satellite: HAWKSAT1 Catalog number: 35003 Epoch time: 11278.76493853 Element set: 0821 Inclination: 040.4370 deg RA of node: 161.0594 deg Eccentricity: 0.0006849 Arg of perigee: 275.9761 deg Mean anomaly: 084.3784 deg Mean motion: 16.29831142 rev/day Decay rate: 5.638703e-02 rev/day^2 Epoch rev: 13489 Checksum: 328
Satellite: CP6 Catalog number: 35004 Epoch time: 11247.64656856 Element set: 784 Inclination: 040.4403 deg RA of node: 342.9642 deg Eccentricity: 0.0002956 Arg of perigee: 038.0069 deg Mean anomaly: 322.2231 deg Mean motion: 16.41039951 rev/day Decay rate: 1.6152067e-01 rev/day^2 Epoch rev: 13013 Checksum: 285
Satellite: METEOR-M Catalog number: 35865 Epoch time: 11287.14901486 Element set: 810 Inclination: 098.6928 deg RA of node: 340.6506 deg Eccentricity: 0.0003315 Arg of perigee: 053.3280 deg Mean anomaly: 306.8200 deg Mean motion: 14.21841675 rev/day Decay rate: -1.1e-07 rev/day^2 Epoch rev: 10749 Checksum: 280
